EXPRESS-AM6

Last updated on Nov. 18, 2019, 4:21 a.m. UTC

1 40277U 14064A   19321.15222868  .00000106  00000-0  00000+0 0  9991
2 40277   0.0152 270.2289 0000989 345.8692 267.6601  1.00270465 18566
UTC
Height (km)
Latitude
Longitude
Inclination
Orbital Period
UTC large
Height (km)
Speed (km/s)
/
Latitude / Longitude
Inclination (degrees)
Orbital Period (minutes)
Azimuth
Elevation
Range (km)
Doppler Factor
iOS Compass Heading
iOS Angle

Next 30 passes for location: Hong Kong

Rise time Rise Azimuth (degrees) Set time Set Azimuth (degrees) Duration Max altitude (degrees)

No matching passes for this satellites